Powrót do katalogu

FENGYUN 1C DEB

AktywnyPO
NORAD 31768·DEBRIS·🇨🇳 China

Wystrzelony May 10, 1999 z Taiyuan Satellite Launch Center

Loading…

Następne Przeloty (najbliższe 24 godziny)

TLE

ŚwieżeSource: Space-Track

Epoka: Sep 14, 2026, 06:18 UTC

1 31768U 99025CFT 26257.26255287  .00015145  00000-0  17130-2 0  9999
2 31768  99.0366  10.1742 0023270 191.3931 200.8450 14.86383859  9447

Śledź FENGYUN 1C DEB w czasie rzeczywistym z AllMySat

Download on the App Store